Location: *
(40.7873°S, 98.7174°E)
Time: 23:52:27
(UTC+00:00)

ARIANE 6 FM1 Upper Stage - Pass Details

Date: 15 December 2025
Orbit: 522 x 610 km, 62.0° (Epoch: 20 January)

Event Time Altitude Azimuth Distance (km) Brightness Sun altitude
Rises 18:47:28 0° 209° (SSW) 2,911 6.9 -22.8°
Reaches altitude 10° 18:50:01 10° 198° (SSW) 1,994 6.1 -22.6°
Maximum altitude 18:54:00 29° 137° (SE) 1,125 4.8 -22.3°
Drops below altitude 10° 18:57:53 10° 75° (ENE) 1,946 5.5 -22.0°
Sets 19:00:20 0° 64° (ENE) 2,826 6.2 -21.8°
